Starlink 6140

operational
NORAD ID: 57111 Int'l Des: 2023-090 Owner: SPXS Country: US Constellation: starlink
LEOCIRCULAR

About Starlink 6140

Description loading...

Live Position

Loading 3D Globe...

Upcoming Passes

Altitude History

Altitude vs Time

uPlot chart will show altitude changes over time

Two-Line Element Set

1 57111U 23090L 25303.85751787 -.00000051 00000-0 11314-4 0 9991
2 57111 43.0060 260.0913 0001148 269.9822 90.0889 15.02536379130888
Epoch: Oct 30, 2025 • Age: 6 hours

Current Status

Altitude 569.0 km
Velocity 7.58 km/s
Sub-Earth Point -36.60°S, 126.28°E
Launch Date Jun 23, 2023
Age 2.3 years
Type internet

Technical Details

Classification Payload
Mass 305.00 kg
Dry Mass 290.00 kg
Total Mass 305.00 kg
Length 0.20 m
Diameter 2.80 m
Span 9.00 m
Shape Box + pan
Manufacturer SPXS
Bus Type Starlink
Phase Status In Orbit
Owner/State SPXS/US

Large Constellations

Loading constellations...